Weather History for KDPA - July, 2013

Change the Weather History Date:

Monday, July 8, 2013

  Actual Average Record
Temperature  
Mean Temperature 79 °F 74 °F  
Max Temperature 86 °F 86 °F 93 °F (2002)
Min Temperature 71 °F 63 °F 51 °F (2015)
Degree Days  
Heating Degree Days 0 0  
Month to date heating degree days 5 0  
Since 1 June heating degree days 59 36  
Since 1 July heating degree days 5 0  
Cooling Degree Days 14 9  
Month to date cooling degree days 44 72  
Year to date cooling degree days 260 296  
Since 1 June cooling degree days 183 250  
Growing Degree Days 28 (Base 50)    
Moisture  
Dew Point 71 °F    
Average Humidity 85    
Maximum Humidity 94    
Minimum Humidity 67    
Precipitation  
Precipitation 1.83 in 0.10 in 1.83 in (2013)
Month to date precipitation 2.08 0.63  
Year to date precipitation 22.27 17.54  
Sea Level Pressure  
Sea Level Pressure 29.98 in    
Wind  
Wind Speed 11 mph (SW)    
Max Wind Speed 22 mph    
Max Gust Speed 28 mph    
Visibility 7 miles    
Events Fog , Rain    
T = Trace of Precipitation, MM = Missing Value Source: NWS Daily Summary

Daily Weather History Graph

Daily Weather History Graph

Search for Another Location

Airport or City:

Trip Planner

Search our weather history database for the weather conditions in past years. The results will help you decide how hot, cold, wet, or windy it might be!

Date:

Astronomy

Jul. 08, 2013 Rise Set
Actual Time 5:25 AM CDT 8:30 PM CDT
Civil Twilight 4:52 AM CDT 9:03 PM CDT
Nautical Twilight 4:09 AM CDT 9:46 PM CDT
Astronomical Twilight 3:17 AM CDT 10:37 PM CDT
Moon 5:56 AM CDT (7/8) 8:30 PM CDT (7/8)
Length of Visible Light 16h 11m
Length of Day
15h 04m
New Moon, 0% of the Moon is Illuminated
Jul 8
New Moon
Jul 15
First Quarter
Jul 22
Full
Jul 29
Last Quarter
Aug 6
New

Hourly Weather History & Observations

Time (CDT) Temp. Heat Index Dew Point Humidity Pressure Visibility Wind Dir Wind Speed Gust Speed Precip Events Conditions
12:52 AM 75.0 °F - 69.1 °F 82% 29.99 in 9.0 mi Calm Calm - N/A   Partly Cloudy
1:52 AM 77.0 °F - 70.0 °F 79% 29.98 in 10.0 mi SSW 9.2 mph - N/A   Partly Cloudy
2:52 AM 75.9 °F - 69.1 °F 79% 29.97 in 10.0 mi South 5.8 mph - N/A   Scattered Clouds
3:52 AM 75.0 °F - 70.0 °F 84% 29.95 in 9.0 mi South 8.1 mph - N/A   Clear
4:52 AM 73.9 °F - 70.0 °F 87% 29.96 in 8.0 mi South 6.9 mph - N/A   Mostly Cloudy
5:52 AM 75.0 °F - 70.0 °F 84% 29.98 in 9.0 mi SW 9.2 mph - N/A   Overcast
6:52 AM 73.9 °F - 70.0 °F 87% 29.99 in 7.0 mi West 10.4 mph - 0.00 in Rain Light Rain
7:52 AM 73.0 °F - 70.0 °F 90% 29.98 in 8.0 mi SW 10.4 mph - 0.06 in Rain Light Rain
8:10 AM 73.4 °F - 69.8 °F 88% 30.00 in 7.0 mi SW 11.5 mph - 0.00 in   Mostly Cloudy
8:23 AM 73.4 °F - 69.8 °F 88% 30.00 in 8.0 mi SW 12.7 mph - 0.00 in   Mostly Cloudy
8:52 AM 73.0 °F - 69.1 °F 87% 29.99 in 10.0 mi SW 16.1 mph - 0.00 in   Mostly Cloudy
8:57 AM 73.4 °F - 69.8 °F 88% 30.01 in 1.5 mi WSW 19.6 mph 24.2 mph 0.09 in Rain Light Rain
9:04 AM 71.6 °F - 69.8 °F 94% 30.00 in 0.5 mi SW 19.6 mph - 0.33 in Fog , Rain Heavy Rain
9:16 AM 71.6 °F - 69.8 °F 94% 30.00 in 3.0 mi SSW 11.5 mph - 0.51 in Rain Heavy Rain
9:31 AM 71.6 °F - 69.8 °F 94% 30.01 in 7.0 mi South 8.1 mph - 0.51 in Rain Light Rain
9:52 AM 71.1 °F - 69.1 °F 93% 30.03 in 8.0 mi North 9.2 mph - 0.53 in Rain Light Rain
10:05 AM 71.6 °F - 69.8 °F 94% 30.02 in 1.8 mi South 9.2 mph - 0.12 in Rain Heavy Rain
10:12 AM 71.6 °F - 69.8 °F 94% 30.02 in 5.0 mi South 6.9 mph - 0.18 in Rain Heavy Rain
10:52 AM 71.1 °F - 69.1 °F 93% 30.00 in 4.0 mi SSW 12.7 mph 19.6 mph 0.27 in Rain Light Rain
11:20 AM 71.6 °F - 68.0 °F 88% 30.00 in 2.0 mi SW 13.8 mph 19.6 mph 0.08 in Rain Rain
11:28 AM 71.6 °F - 68.0 °F 88% 30.00 in 0.8 mi SSW 20.7 mph - 0.23 in Rain Heavy Rain
11:52 AM 71.1 °F - 69.1 °F 93% 29.99 in 1.0 mi SW 21.9 mph 27.6 mph 0.52 in Rain Heavy Rain
12:00 PM 71.6 °F - 69.8 °F 94% 30.00 in 0.5 mi SSW 13.8 mph 27.6 mph 0.18 in Fog , Rain Heavy Rain
12:17 PM 71.6 °F - 69.8 °F 94% 30.00 in 1.8 mi South 9.2 mph - 0.43 in Rain Heavy Rain
12:20 PM 71.6 °F - 69.8 °F 94% 30.00 in 10.0 mi South 6.9 mph - 0.43 in Rain Light Rain
12:28 PM 73.4 °F - 71.6 °F 94% 29.99 in 10.0 mi South 5.8 mph - 0.43 in   Overcast
12:52 PM 79.0 °F - 73.0 °F 82% 29.97 in 10.0 mi South 13.8 mph - 0.43 in   Scattered Clouds
1:52 PM 82.9 °F 88.0 °F 72.0 °F 69% 29.95 in 10.0 mi SSW 18.4 mph 23.0 mph N/A   Partly Cloudy
2:52 PM 84.9 °F 91.4 °F 73.0 °F 67% 29.94 in 10.0 mi SW 18.4 mph 25.3 mph N/A   Partly Cloudy
3:52 PM 84.0 °F 90.2 °F 73.0 °F 69% 29.94 in 10.0 mi SW 12.7 mph - N/A   Overcast
4:52 PM 86.0 °F 95.1 °F 75.0 °F 70% 29.93 in 10.0 mi SW 8.1 mph - 0.00 in   Overcast
5:52 PM 84.0 °F 90.2 °F 73.0 °F 69% 29.93 in 10.0 mi West 12.7 mph 21.9 mph 0.02 in   Mostly Cloudy
6:52 PM 84.9 °F 93.3 °F 75.0 °F 72% 29.94 in 10.0 mi WSW 8.1 mph - N/A   Partly Cloudy
7:52 PM 82.0 °F 87.4 °F 73.0 °F 74% 29.94 in 10.0 mi WSW 9.2 mph - N/A   Clear
8:52 PM 80.1 °F 83.8 °F 72.0 °F 76% 29.96 in 10.0 mi WSW 5.8 mph - N/A   Clear
9:52 PM 78.1 °F - 73.0 °F 84% 29.96 in 10.0 mi SW 5.8 mph - N/A   Clear
10:52 PM 78.1 °F - 73.0 °F 84% 29.98 in 10.0 mi WSW 8.1 mph - N/A   Clear
11:52 PM 77.0 °F - 73.0 °F 88% 29.99 in 9.0 mi WSW 6.9 mph - N/A   Clear